Flag for Canada Weather past 2 weeks in MD of Lunenburg, Nova Scotia, Canada

Now
63 °F

Mild.


Feels Like: 63 °F
Forecast: 65 / 73 °F
Wind: 8 mph from South

Location: McNabs Island - AUT

Current Time: Sep 2, 2014 at 11:33:15 PM

Latest Report: Sep 2, 2014 at 11:00 PM


Visibility: N/A

Pressure: 29.90 "Hg

Humidity: N/A

Dew point: N/A

Location of MD of LunenburgLocation

Historic Weather in MD of Lunenburg — Graph

°F

MD of Lunenburg temperature yesterday

Maximum temperature yesterday: 78 °F (at 6:00 PM)
Minimum temperature yesterday: 62 °F (at 5:00 AM)
Average temperature yesterday: 68 °F

Past Weeks' High & Low Weather Summary

 TemperatureHumidityPressure
High79 °F (Aug 20, 12:00 PM)100% (Aug 19, 4:00 AM)30.32 "Hg (Aug 19, 4:00 AM)
Low48 °F (Aug 30, 4:00 AM)40% (Aug 30, 1:00 PM)29.56 "Hg (Aug 28, 7:00 PM)
Average65 °F80%30.00 "Hg
* Reported Aug 18 10:00 PM — Sep 2 10:00 PM, MD of Lunenburg, Weather by CustomWeather, © 2014

Note: Actual official high and low records may vary slightly from our data, if they occured in-between our weather recording intervals... More about our weather records

Advertising

MD of Lunenburg weather history for previous 24 hours

 ConditionsComfort  
Time TempWeatherWind HumidityBarometerVisibility
10:00 PM
Sep 2
64 °FMild.3 mphN/A29.90 "HgN/A
9:00 PM63 °FMild.3 mphN/A29.90 "HgN/A
8:00 PM64 °FMild.6 mphN/A29.89 "HgN/A
7:00 PM64 °FMild.5 mphN/A29.89 "HgN/A
6:00 PM66 °FMild.5 mphN/A29.89 "HgN/A
5:00 PM68 °FMild.6 mphN/A29.90 "HgN/A
4:00 PM68 °FMild.3 mphN/A29.91 "HgN/A
3:00 PM66 °FMild.2 mphN/A29.93 "HgN/A
2:00 PM65 °FMild.2 mph96%29.96 "HgN/A
1:00 PM67 °FMild.5 mph96%29.96 "HgN/A
12:00 PM66 °FMild.7 mph96%29.96 "HgN/A
11:00 AM66 °FMild.6 mph96%29.96 "HgN/A
10:00 AM66 °FMild.6 mph96%29.97 "HgN/A
9:00 AM63 °FMild.2 mph96%29.97 "HgN/A
8:00 AM64 °FMild.5 mph96%29.97 "HgN/A
7:00 AM63 °FMild.3 mph97%29.97 "HgN/A
6:00 AM64 °FMild.3 mph96%29.96 "HgN/A
5:00 AM64 °FMild.5 mph96%29.96 "HgN/A
4:00 AM64 °FMild.5 mph95%29.96 "HgN/A
3:00 AM66 °FMild.5 mph94%29.96 "HgN/A
2:00 AM64 °FMild.1 mph95%29.98 "HgN/A
1:00 AM65 °FMild.3 mph90%29.97 "HgN/A
12:00 AM69 °FMild.3 mph93%29.98 "HgN/A
11:00 PM
Sep 1
68 °FMild.1 mph94%29.98 "HgN/A
Weather by CustomWeather, © 2014

See weather overviewHow to use our weather pages